#timestamp,LO_Frequency,Hit,StdDev 
1637413215.7,286047002.8,P
1637413235.6,286046999.7,N
1637413255.4,286046998.3,N
1637413275.2,286046996.6,N
1637413295.1,286047002.4,N
1637413296.0,286047002.4,N
1637413315.8,286047003.4,N
1637413335.7,286047000.7,N
1637413355.5,286046995.2,N
1637413375.3,286046995.9,N
1637413395.2,286046992.1,N
1637413415.0,286046994.6,N
1637413415.9,286046994.6,N
1637413435.8,286046999.2,N
1637413455.6,286046998.7,N
1637413475.4,286046998.1,N
1637413495.3,286046995.3,N
1637413515.1,286046999.5,N
1637413535.8,286046996.8,N
1637413555.7,286047000.2,N
1637413575.5,286047004.0,N
1637413595.3,286046997.3,N
1637413615.2,286046996.0,N
1637413635.0,286046999.5,N
1637413635.9,286046999.5,N
1637413655.8,286046995.5,N
1637413675.6,286046999.1,N
1637413695.4,286046994.9,N
1637413715.3,286046997.6,N
1637413735.1,286046994.5,N
1637413755.9,286046997.3,N
1637413775.7,286047004.1,N
1637413795.5,286046998.3,N
1637413815.4,286046997.5,N
1637413835.2,286047000.8,N
1637413855.0,286046994.0,N
1637413855.9,286046994.0,N
1637413875.8,286047000.5,N
1637413895.6,286047000.0,N
1637413915.5,286046996.9,N
1637413935.3,286046993.4,N
1637413955.1,286046990.7,Y
1637413975.9,286046997.1,P
1637413995.7,286046992.0,P
1637414015.5,286046995.6,N
1637414035.4,286047000.6,N
1637414055.2,286046999.3,N
1637414075.1,286047000.4,N
1637414076.0,286047000.4,N
1637414095.8,286046996.7,N
1637414115.6,286046994.0,N
1637414135.5,286046990.8,Y
1637414155.3,286046995.6,P
1637414175.1,286046992.7,P
1637414195.9,286046993.4,P
1637414215.7,286046991.9,Y
1637414235.6,286046995.3,P
1637414255.4,286047001.9,P
1637414275.2,286047002.5,N
1637414295.1,286047000.1,N
1637414296.0,286047000.1,N
1637414315.8,286047000.1,N
1637414335.7,286047004.3,N
1637414355.5,286047008.6,N
1637414375.3,286047009.5,N
1637414395.2,286047006.3,N
1637414415.0,286047005.6,N
1637414415.9,286047005.6,N
1637414435.7,286047010.8,N
1637414455.6,286047011.6,N
1637414475.4,286047008.5,N
1637414495.3,286047010.5,N
1637414515.1,286047013.7,N
1637414516.0,286047013.7,N
1637414535.8,286047010.6,N
1637414555.7,286047007.6,N
1637414575.5,286047001.1,N
1637414595.3,286046995.6,N
1637414615.2,286047000.4,N
1637414635.0,286047005.9,N
1637414635.9,286047005.9,N
1637414655.8,286047002.0,N
1637414675.6,286047001.6,N
1637414695.4,286046998.9,N
1637414715.3,286046998.7,N
1637414735.1,286046999.1,N
1637414755.8,286047002.8,N
1637414775.7,286047003.0,N
1637414795.5,286047005.7,N
1637414815.4,286047001.4,N
1637414835.2,286047004.1,N
1637414855.0,286047002.0,N
1637414855.9,286047002.0,N
1637414875.8,286047003.0,N
1637414895.6,286047004.7,N
1637414915.5,286046998.4,N
1637414935.3,286046998.2,N
1637414955.1,286047000.2,N
1637414975.9,286047003.4,N
1637414995.7,286046999.4,N
1637415015.5,286046997.2,N
1637415035.4,286047000.1,N
1637415055.2,286046996.9,N
1637415075.1,286046999.3,N
1637415076.0,286046999.3,N
1637415095.8,286046996.6,N
1637415115.6,286046998.0,N
1637415135.5,286046995.3,N
1637415155.3,286046998.6,N
1637415175.1,286047000.1,N
1637415195.9,286047000.7,N
1637415215.7,286047002.7,N
1637415235.6,286047003.3,N
1637415255.4,286047003.0,N
1637415275.2,286047002.5,N
1637415295.1,286047007.0,N
1637415296.0,286047007.0,N
1637415315.8,286047005.2,N
1637415335.7,286047003.2,N
1637415355.5,286047003.1,N
1637415375.3,286047002.0,N
1637415395.2,286047000.0,N
1637415415.9,286046998.5,N
1637415435.7,286046997.4,N
1637415455.6,286046999.5,N
1637415475.4,286046998.6,N
1637415495.3,286046999.0,N
1637415515.1,286046999.2,N
1637415516.0,286046999.2,N
1637415535.8,286046997.3,N
1637415555.7,286046997.1,N
1637415575.5,286047000.7,N
1637415595.3,286047001.0,N
1637415615.2,286047001.4,N
1637415635.0,286047003.6,N
1637415635.9,286047003.6,N
1637415655.8,286047001.3,N
1637415675.6,286047006.0,N
1637415695.4,286047001.9,N
1637415715.3,286047004.0,N
1637415735.1,286047001.9,N
1637415755.8,286047005.4,N
1637415775.7,286047005.0,N
1637415795.5,286047012.0,Y
1637415815.4,286047007.4,P
1637415835.2,286047003.1,N
1637415855.0,286047005.6,N
1637415855.9,286047005.6,N
1637415875.8,286047005.4,N
1637415895.6,286047007.1,Y
1637415915.4,286047000.0,P
1637415935.3,286047000.3,N
1637415955.1,286047000.7,N
1637415975.9,286046998.1,N
1637415995.7,286047002.1,N
1637416015.5,286047005.8,N
1637416035.4,286047001.4,N
1637416055.2,286047005.4,N
1637416075.0,286047007.6,N
1637416076.0,286047007.6,N
1637416095.8,286047003.8,N
1637416115.6,286047002.1,N
1637416135.5,286047001.3,N
1637416155.3,286047000.3,N
1637416175.1,286047004.9,N
1637416195.9,286047008.7,Y
1637416215.7,286047001.5,P
1637416235.6,286046998.5,N
1637416255.4,286047000.2,N
1637416275.2,286047001.0,N
1637416295.1,286047000.4,N
1637416296.0,286047000.4,N
1637416315.8,286047001.7,N
1637416335.6,286047008.3,Y
1637416355.5,286047004.1,P
1637416375.3,286047000.0,N
1637416395.2,286047002.1,N
1637416415.9,286047001.3,N
1637416435.7,286047004.1,N
1637416455.6,286047004.1,N
1637416475.4,286047000.0,N
1637416495.2,286047002.1,N
1637416515.1,286047001.0,N
1637416516.0,286047001.0,N
1637416535.8,286047001.9,N
1637416555.7,286046999.4,N
1637416575.5,286046996.2,N
1637416595.3,286046995.0,N
1637416615.2,286046994.6,N
1637416635.0,286046993.0,N
1637416635.9,286046993.0,N
1637416655.8,286046992.0,N
1637416675.6,286046994.7,N
1637416695.4,286046991.7,N
1637416715.3,286046993.8,N
1637416735.1,286046999.4,N
1637416736.0,286046999.4,N
1637416755.9,286046995.0,N
1637416775.7,286046999.9,N
1637416795.5,286047005.5,N
